{"data":{"norad_id":58606,"intl_designator":"2023-200T","name":"STARLINK-31082","alt_names":[],"object_type":"PAYLOAD","status":"ACTIVE","operator":null,"country":"US","launch_date":"2023-12-19","launch_site_code":"AFETR","launch_vehicle":null,"mission":null,"orbit_class":"UNKNOWN","rcs_meters":null,"size_class":null,"mass_kg":null,"dimensions":null,"purposes":["comms"],"wikipedia_slug":null,"has_3d_model":false,"image_url":null,"decayed_at":null,"tle_current":{"epoch":"2026-09-20T00:42:58.842144Z","epoch_age_seconds":190468,"freshness":"STALE","line1":"1 58606U 23200T   26263.02984771 -.00000526  00000+0 -95916-5 0  9998","line2":"2 58606  43.0024 151.2361 0001414 269.9621  90.1068 15.27576931153339","mean_motion":15.27576931,"eccentricity":0.0001414,"inclination_deg":43.0024,"raan_deg":151.2361,"arg_perigee_deg":269.9621,"mean_anomaly_deg":90.1068,"bstar":-9.5916e-6,"rev_number":15333,"period_min":94.266938101594,"perigee_km":482.0881127317,"apogee_km":484.02845875851,"semimajor_km":6861.1952857451,"source":"CELESTRAK","updated_at":"2026-09-21T09:00:33.920287Z"}}}